Regional Weather Roundup
Issued by NWS

Home | Current Version | Previous Version | Text Only | Print | Product List | Glossary Off
Versions: 1 2 3 4 5 6 7 8 9 10 11 12 13 14 15 16 17 18 19 20 21 22 23 24 25 26 27 28 29 30 31 32 33 34 35 36 37 38 39 40 41 42 43 44 45 46 47 48 49 50

737
ASUS43 KIND 231909
RWRIN

WEATHER ROUNDUP FOR INDIANA
NATIONAL WEATHER SERVICE INDIANAPOLIS IN
300 PM EDT FRI JUN 23 2017

NOTE: "FAIR" INDICATES FEW OR NO CLOUDS BELOW 12,000 FEET WITH NO
SIGNIFICANT WEATHER AND/OR OBSTRUCTIONS TO VISIBILITY.

* - STATION DOES NOT REPORT WEATHER SUCH AS PRECIPITATION OR FOG.

+ - STATION NOT QUALITY CONTROLLED BY THE NATIONAL WEATHER SERVICE.
    USE DATA WITH CAUTION...ESPECIALLY DEWPOINT AND RELATIVE
    HUMIDITY OBSERVATIONS.

INZ001>003-010>013-019-020-232000-
NORTHWEST INDIANA

CITY           SKY/WX    TMP DP  RH WIND       PRES   REMARKS
GARY /AIRPORT/ PTSUNNY   75  55  50 N6        29.72F
KNOX *+        PTSUNNY   72  52  49 NW9       29.72S
LA PORTE +     CLOUDY    72  60  66 N6        29.73F
MICHIGAN CITY+ PTSUNNY   72  59  64 NW7       29.73S
MONTICELLO +   CLOUDY    71  65  80 N9        29.73R
RENSSELAER +   CLOUDY    72  59  64 N8        29.74S
VALPARAISO     CLOUDY    76  57  51 N6        29.73S

$$

LMZ046-743>745-232000-
SOUTHERN LAKE MICHIGAN

STATION/POSITION TIME  TEMP    WIND        PRES    WAVE
                       AIR SEA DIR/SP/G            HT
                 (UTC) (F)     (DEG/KT/KT) (MB)    (FT)
BURNS HARBOR     1840   67     290/  3/  4 1007.1S
MICHIGAN CITY    1840   68     270/  7/  8   N/A
5NW MICH CITY    1900   67 68  290/  6/  8   N/A     1

$$

INZ004-005-014>016-021>024-232000-
NORTH CENTRAL INDIANA

CITY           SKY/WX    TMP DP  RH WIND       PRES   REMARKS
ELKHART        PTSUNNY   72  63  73 NW12      29.71R
GOSHEN         CLOUDY    72  61  68 NW12      29.71S
LOGANSPORT +   CLOUDY    70  64  83 NW13G22   29.73S
PERU/GRISSOM   CLOUDY    70  69  96 NW9       29.71R
ROCHESTER +    CLOUDY    73  64  73 NW8       29.73R
SOUTH BEND     CLOUDY    72  62  71 NW10      29.72S
WARSAW +       CLOUDY    72  63  73 NW7       29.72S

$$

INZ006>009-017-018-025>027-232000-
NORTHEAST INDIANA

CITY           SKY/WX    TMP DP  RH WIND       PRES   REMARKS
AUBURN +       CLOUDY    73  63  68 W14       29.69S
FORT WAYNE     LGT RAIN  71  68  90 SW14      29.70F
HUNTINGTON +   RAIN      69  68  96 W6        29.71R
KENDALLVILLE + CLOUDY   N/A N/A N/A W6        29.71R

$$

INZ028-029-035-036-043>045-051>053-232000-
WEST CENTRAL INDIANA

CITY           SKY/WX    TMP DP  RH WIND       PRES   REMARKS
CRAWFORDSVL +  CLOUDY    70  70 100 W3        29.72S
GREENCASTLE +  CLOUDY    72  70  94 CALM      29.72F
LAFAYETTE      CLOUDY    70  69  97 CALM      29.72S
TERRE HAUTE    CLOUDY    76  71  85 N3        29.70S

$$

INZ030>032-037>040-046>048-054>057-064-065-232000-
CENTRAL INDIANA

CITY           SKY/WX    TMP DP  RH WIND       PRES   REMARKS
ANDERSON       CLOUDY    68  66  94 S6        29.73F
CP ATTERBURY + RAIN      70  68  94 CALM      29.71F
COLUMBUS       LGT RAIN  72  70  94 CALM      29.71F FOG
FRANKFORT +    CLOUDY    72  69  90 NW7       29.75R FOG
GREENWOOD *+   CLOUDY    69  67  94 SW3       29.74F
INDIANAPOLIS   LGT RAIN  70  67  90 SW5       29.72S
-EAGLE CREEK   CLOUDY    70  67  90 VRB5      29.72S
KOKOMO +       LGT RAIN  69  67  93 NW8       29.74R FOG
MARION +       CLOUDY    70  66  88 SW8       29.73R
MT COMFORT *+  CLOUDY    68  68 100 SW5       29.74S
SHELBYVILLE    LGT RAIN  71  66  84 SW6       29.73S
ZIONSVILLE +   CLOUDY    68  67  96 S6        29.74S

$$

INZ033-034-041-042-049-050-058-059-232000-
EAST CENTRAL INDIANA

CITY           SKY/WX    TMP DP  RH WIND       PRES   REMARKS
MUNCIE         LGT RAIN  70  67  90 S6        29.72F FOG
RICHMOND +     HVY RAIN  66  64  94 SW5       29.76S

$$

INZ060-061-067>069-081>083-085>088-232000-
SOUTHWEST INDIANA

CITY           SKY/WX    TMP DP  RH WIND       PRES   REMARKS
EVANSVILLE     CLOUDY    75  72  90 S3        29.68S
HUNTINGBURG *+ LGT RAIN  74  73  97 S7        29.69F
WASHINGTON +   CLOUDY    74  72  92 CALM      29.69R

$$

INZ062-063-066-070>080-084-089>092-232000-
SOUTH CENTRAL AND SOUTHEAST INDIANA

CITY           SKY/WX    TMP DP  RH WIND       PRES   REMARKS
BEDFORD +      CLOUDY    75  72  88 S6        29.69F
BLOOMINGTON    CLOUDY    74  70  87 W6        29.71R
MADISON *+     CLOUDY    73  72  94 W5        29.74F
NORTH VERNON + RAIN      72  70  94 CALM      29.73F
SEYMOUR +      LGT RAIN  75  75 100 CALM      29.71F

$$





USA.gov is the U.S. government's official web portal to all federal, state and local government web resources and services.